When you browse on this site, cookies collect data to enhance your experience and personalize the content and advertising you see.
Visit our Privacy Policy to learn more. By continuing to use the site, you agree to this use of cookies and data.
  • In Hungary
  • List of Countries
  • For 7 days
  • Water Temperature
  • Weather Map
  • News
  • Weather Widgets
  • user-avatar
    Login

    Hourly Weather Palom

    Today, 28 January, Tuesday

    Time Temperature Precipitation Wind Pressure Humidity
    00:00 -2°C° 0.2 mm 2 mps 741 mmHg 98%
    01:00 -2°C° 0.2 mm 2 mps 741 mmHg 98%
    02:00 -2°C° 0 mm 2 mps 741 mmHg 97%
    03:00 -2°C° 0.1 mm 2 mps 741 mmHg 97%
    04:00 -2°C° 0.1 mm 2 mps 741 mmHg 97%
    05:00 -2°C° 0.1 mm 2 mps 740 mmHg 97%
    06:00 -2°C° 0 mm 2 mps 740 mmHg 96%
    07:00 -2°C° 0 mm 2 mps 740 mmHg 96%
    08:00 -2°C° 0 mm 2 mps 740 mmHg 95%
    09:00 -2°C° 0 mm 2 mps 740 mmHg 93%
    10:00 -1°C° 0 mm 2 mps 740 mmHg 90%
    11:00 -1°C° 0 mm 2 mps 740 mmHg 88%
    12:00 -1°C° 0 mm 2 mps 740 mmHg 88%
    13:00 -1°C° 0 mm 2 mps 740 mmHg 88%
    14:00 -1°C° 0 mm 3 mps 739 mmHg 87%
    15:00 -1°C° 0 mm 3 mps 739 mmHg 89%
    16:00 -1°C° 0 mm 2 mps 739 mmHg 91%
    17:00 -1°C° 0 mm 2 mps 739 mmHg 93%
    18:00 -1°C° 0 mm 3 mps 739 mmHg 92%
    19:00 -1°C° 0 mm 3 mps 739 mmHg 91%
    20:00 -1°C° 0 mm 3 mps 739 mmHg 90%
    21:00 -1°C° 0 mm 3 mps 739 mmHg 90%
    22:00 -1°C° 0 mm 3 mps 738 mmHg 90%
    23:00 -1°C° 0 mm 3 mps 738 mmHg 90%

    Tomorrow, 29 January, Wednesday

    Time Temperature Precipitation Wind Pressure Humidity
    00:00 -2°C° 0 mm 3 mps 738 mmHg 92%
    01:00 -2°C° 0 mm 3 mps 738 mmHg 93%
    02:00 -2°C° 0 mm 3 mps 738 mmHg 94%
    03:00 -2°C° 0 mm 3 mps 737 mmHg 95%
    04:00 -2°C° 0 mm 3 mps 737 mmHg 95%
    05:00 -3°C° 0 mm 4 mps 736 mmHg 95%
    06:00 -3°C° 0 mm 4 mps 736 mmHg 95%
    07:00 -3°C° 0 mm 4 mps 736 mmHg 94%
    08:00 -3°C° 0 mm 4 mps 736 mmHg 93%
    09:00 -2°C° 0 mm 4 mps 736 mmHg 90%
    10:00 -1°C° 0 mm 5 mps 736 mmHg 87%
    11:00 -1°C° 0 mm 5 mps 736 mmHg 84%
    12:00 -1°C° 0 mm 5 mps 735 mmHg 87%
    13:00 0°C° 0 mm 5 mps 735 mmHg 89%
    14:00 0°C° 0 mm 5 mps 734 mmHg 91%
    15:00 0°C° 0 mm 5 mps 734 mmHg 92%
    16:00 0°C° 0 mm 5 mps 733 mmHg 93%
    17:00 0°C° 0 mm 5 mps 733 mmHg 94%
    18:00 0°C° 0.1 mm 5 mps 732 mmHg 95%
    19:00 -1°C° 0.1 mm 6 mps 732 mmHg 95%
    20:00 -1°C° 0.1 mm 6 mps 732 mmHg 95%
    21:00 -1°C° 0.1 mm 6 mps 731 mmHg 95%
    22:00 -1°C° 0.1 mm 5 mps 731 mmHg 96%
    23:00 -1°C° 0.1 mm 5 mps 730 mmHg 96%

    Day after tomorrow, 30 January, Thursday

    Time Temperature Precipitation Wind Pressure Humidity
    00:00 -1°C° 0.4 mm 5 mps 730 mmHg 96%
    01:00 -1°C° 0.4 mm 4 mps 730 mmHg 97%
    02:00 -1°C° 0.4 mm 4 mps 729 mmHg 97%
    03:00 -1°C° 0.8 mm 4 mps 729 mmHg 97%
    04:00 0°C° 0.8 mm 3 mps 728 mmHg 98%
    05:00 0°C° 0.8 mm 3 mps 728 mmHg 98%
    06:00 -1°C° 0.4 mm 4 mps 728 mmHg 97%
    07:00 -2°C° 0.4 mm 4 mps 728 mmHg 96%
    08:00 -2°C° 0.4 mm 4 mps 728 mmHg 96%
    09:00 -2°C° 0.1 mm 4 mps 728 mmHg 93%
    10:00 -2°C° 0.1 mm 5 mps 728 mmHg 90%
    11:00 -2°C° 0.1 mm 5 mps 728 mmHg 87%
    12:00 -2°C° 0.1 mm 5 mps 728 mmHg 88%
    13:00 -2°C° 0.1 mm 4 mps 728 mmHg 89%
    14:00 -2°C° 0.1 mm 4 mps 728 mmHg 91%
    15:00 -2°C° 0.1 mm 4 mps 728 mmHg 92%
    16:00 -2°C° 0.1 mm 4 mps 728 mmHg 93%
    17:00 -2°C° 0.1 mm 3 mps 728 mmHg 95%
    18:00 -2°C° 0 mm 3 mps 728 mmHg 95%
    19:00 -2°C° 0 mm 3 mps 729 mmHg 95%
    20:00 -4°C° 0 mm 3 mps 729 mmHg 95%
    21:00 -3°C° 0 mm 2 mps 729 mmHg 95%
    22:00 -3°C° 0 mm 2 mps 729 mmHg 95%
    23:00 -3°C° 0 mm 2 mps 729 mmHg 95%

    31 January, Friday

    Time Temperature Precipitation Wind Pressure Humidity
    00:00 -3°C° 0 mm 2 mps 730 mmHg 95%
    01:00 -3°C° 0 mm 2 mps 730 mmHg 95%
    02:00 -1°C° 0 mm 1 mps 731 mmHg 95%
    03:00 -1°C° 0.1 mm 1 mps 731 mmHg 95%
    04:00 -1°C° 0.1 mm 1 mps 731 mmHg 95%
    05:00 -1°C° 0.1 mm 1 mps 731 mmHg 95%
    06:00 0°C° 0.2 mm 1 mps 731 mmHg 95%
    07:00 -2°C° 0.2 mm 2 mps 732 mmHg 96%
    08:00 -2°C° 0.2 mm 2 mps 732 mmHg 96%
    09:00 -2°C° 0.2 mm 3 mps 732 mmHg 94%
    10:00 -1°C° 0.2 mm 3 mps 732 mmHg 92%
    11:00 -2°C° 0.2 mm 4 mps 732 mmHg 90%
    12:00 -1°C° 0.1 mm 3 mps 731 mmHg 91%
    13:00 -1°C° 0.1 mm 3 mps 731 mmHg 91%
    14:00 -1°C° 0.1 mm 2 mps 731 mmHg 92%
    15:00 -1°C° 0.4 mm 2 mps 731 mmHg 94%
    16:00 -1°C° 0.4 mm 2 mps 731 mmHg 96%
    17:00 -1°C° 0.4 mm 2 mps 731 mmHg 98%
    18:00 -1°C° 0.2 mm 2 mps 731 mmHg 98%
    19:00 -1°C° 0.2 mm 2 mps 731 mmHg 98%
    20:00 +1°C° 0.2 mm 1 mps 731 mmHg 98%
    21:00 +1°C° 0.2 mm 1 mps 731 mmHg 98%
    22:00 +2°C° 0.2 mm 1 mps 731 mmHg 98%
    23:00 +2°C° 0.2 mm 1 mps 732 mmHg 98%

    1 February, Saturday

    Time Temperature Precipitation Wind Pressure Humidity
    00:00 +2°C° 0.1 mm 1 mps 732 mmHg 98%
    01:00 +2°C° 0.1 mm 1 mps 732 mmHg 98%
    02:00 +2°C° 0.1 mm 1 mps 732 mmHg 98%
    03:00 +1°C° 0.2 mm 2 mps 732 mmHg 98%
    04:00 +1°C° 0.2 mm 2 mps 732 mmHg 98%
    05:00 +2°C° 0.2 mm 2 mps 732 mmHg 98%
    06:00 +1°C° 0.1 mm 2 mps 732 mmHg 98%
    07:00 +1°C° 0.1 mm 2 mps 732 mmHg 98%
    08:00 0°C° 0.1 mm 3 mps 732 mmHg 98%
    09:00 0°C° 0.5 mm 3 mps 732 mmHg 98%
    10:00 +1°C° 0.5 mm 3 mps 732 mmHg 98%
    11:00 +1°C° 0.5 mm 3 mps 732 mmHg 98%
    12:00 +1°C° 0.5 mm 3 mps 732 mmHg 98%
    13:00 +1°C° 0.5 mm 3 mps 732 mmHg 98%
    14:00 0°C° 0.5 mm 4 mps 732 mmHg 98%
    15:00 0°C° 0.4 mm 4 mps 732 mmHg 98%
    16:00 0°C° 0.4 mm 4 mps 732 mmHg 97%
    17:00 0°C° 0.4 mm 4 mps 732 mmHg 97%
    18:00 0°C° 0.1 mm 4 mps 732 mmHg 97%
    19:00 +1°C° 0.1 mm 3 mps 732 mmHg 97%
    20:00 +1°C° 0.1 mm 3 mps 732 mmHg 97%
    21:00 +1°C° 0.2 mm 3 mps 732 mmHg 97%
    22:00 +1°C° 0.2 mm 3 mps 732 mmHg 97%
    23:00 0°C° 0.2 mm 4 mps 732 mmHg 97%

    2 February, Sunday

    Time Temperature Precipitation Wind Pressure Humidity
    00:00 +1°C° 0 mm 3 mps 732 mmHg 98%
    01:00 +1°C° 0 mm 3 mps 732 mmHg 98%
    02:00 +2°C° 0 mm 2 mps 732 mmHg 98%
    03:00 +2°C° 0 mm 2 mps 732 mmHg 98%
    04:00 +2°C° 0 mm 2 mps 732 mmHg 98%
    05:00 +2°C° 0 mm 2 mps 732 mmHg 98%
    06:00 +2°C° 0 mm 2 mps 731 mmHg 98%
    07:00 +2°C° 0 mm 2 mps 731 mmHg 98%
    08:00 +2°C° 0 mm 2 mps 731 mmHg 98%
    09:00 +1°C° 0.1 mm 3 mps 730 mmHg 98%
    10:00 +2°C° 0.1 mm 3 mps 730 mmHg 98%
    11:00 +1°C° 0.1 mm 4 mps 729 mmHg 98%
    12:00 +1°C° 0.8 mm 4 mps 729 mmHg 98%
    13:00 +1°C° 0.8 mm 4 mps 728 mmHg 98%
    14:00 +1°C° 0.8 mm 4 mps 728 mmHg 98%
    15:00 +1°C° 0.5 mm 4 mps 727 mmHg 97%
    16:00 +2°C° 0.5 mm 3 mps 727 mmHg 96%
    17:00 +2°C° 0.5 mm 3 mps 727 mmHg 96%
    18:00 +3°C° 0 mm 2 mps 727 mmHg 96%
    19:00 +3°C° 0 mm 2 mps 727 mmHg 96%
    20:00 +2°C° 0 mm 2 mps 727 mmHg 96%
    21:00 +2°C° 0.1 mm 2 mps 727 mmHg 96%
    22:00 +2°C° 0.1 mm 2 mps 728 mmHg 97%
    23:00 +2°C° 0.1 mm 2 mps 728 mmHg 97%
    Show more